When you browse on this site, cookies collect data to enhance your experience and personalize the content and advertising you see.
Visit our Privacy Policy to learn more. By continuing to use the site, you agree to this use of cookies and data.
  • En España
  • Lista de países
  • Para 7 días
  • Temperatura del agua
  • El tiempo en el mapa
  • Informadores
  • user-avatar
    Iniciar sesión

    Tiempo cada hora Maripasoula

    Hoy, 22 Febrero, Sábado

    Tiempo Temperatura Precipitaciones Viento Presión Humedad
    00:00 +24°C° 0 mm 1 mps 747 mmHg 91%
    01:00 +24°C° 0 mm 1 mps 747 mmHg 95%
    02:00 +21°C° 0 mm 0 mps 746 mmHg 98%
    03:00 +21°C° 0 mm 0 mps 746 mmHg 98%
    04:00 +21°C° 0 mm 0 mps 746 mmHg 99%
    05:00 +21°C° 0 mm 0 mps 746 mmHg 99%
    06:00 +22°C° 0 mm 0 mps 747 mmHg 94%
    07:00 +23°C° 0 mm 0 mps 748 mmHg 89%
    08:00 +24°C° 0 mm 0 mps 748 mmHg 86%
    09:00 +26°C° 0 mm 0 mps 748 mmHg 79%
    10:00 +29°C° 0 mm 1 mps 748 mmHg 72%
    11:00 +31°C° 0 mm 1 mps 748 mmHg 66%
    12:00 +32°C° 0.2 mm 1 mps 747 mmHg 64%
    13:00 +32°C° 0.2 mm 1 mps 746 mmHg 63%
    14:00 +33°C° 0.2 mm 1 mps 745 mmHg 62%
    15:00 +32°C° 0.6 mm 1 mps 745 mmHg 71%
    16:00 +30°C° 0.6 mm 1 mps 745 mmHg 80%
    17:00 +29°C° 0.6 mm 1 mps 745 mmHg 89%
    18:00 +28°C° 0.1 mm 1 mps 745 mmHg 92%
    19:00 +27°C° 0.1 mm 1 mps 746 mmHg 95%
    20:00 +26°C° 0.1 mm 1 mps 747 mmHg 97%
    21:00 +26°C° 0.2 mm 1 mps 747 mmHg 98%
    22:00 +25°C° 0.2 mm 1 mps 747 mmHg 98%
    23:00 +25°C° 0.2 mm 1 mps 747 mmHg 99%

    Mañana, 23 Febrero, Domingo

    Tiempo Temperatura Precipitaciones Viento Presión Humedad
    00:00 +25°C° 0 mm 1 mps 747 mmHg 99%
    01:00 +25°C° 0 mm 1 mps 746 mmHg 99%
    02:00 +25°C° 0 mm 1 mps 746 mmHg 99%
    03:00 +25°C° 0 mm 1 mps 746 mmHg 99%
    04:00 +25°C° 0 mm 1 mps 746 mmHg 99%
    05:00 +25°C° 0 mm 1 mps 746 mmHg 99%
    06:00 +25°C° 0.1 mm 1 mps 747 mmHg 97%
    07:00 +26°C° 0.1 mm 1 mps 747 mmHg 95%
    08:00 +26°C° 0.1 mm 2 mps 748 mmHg 94%
    09:00 +28°C° 0.4 mm 2 mps 748 mmHg 88%
    10:00 +29°C° 0.4 mm 1 mps 748 mmHg 82%
    11:00 +30°C° 0.4 mm 1 mps 748 mmHg 77%
    12:00 +31°C° 0.7 mm 2 mps 747 mmHg 75%
    13:00 +31°C° 0.7 mm 2 mps 746 mmHg 74%
    14:00 +31°C° 0.7 mm 2 mps 745 mmHg 73%
    15:00 +30°C° 0.9 mm 1 mps 745 mmHg 79%
    16:00 +29°C° 0.9 mm 1 mps 745 mmHg 85%
    17:00 +28°C° 0.9 mm 1 mps 745 mmHg 91%
    18:00 +27°C° 0.2 mm 1 mps 746 mmHg 93%
    19:00 +27°C° 0.2 mm 1 mps 746 mmHg 95%
    20:00 +26°C° 0.2 mm 1 mps 746 mmHg 97%
    21:00 +25°C° 0 mm 1 mps 747 mmHg 97%
    22:00 +25°C° 0 mm 1 mps 747 mmHg 98%
    23:00 +24°C° 0 mm 1 mps 747 mmHg 98%

    Pasado mañana, 24 Febrero, Lunes

    Tiempo Temperatura Precipitaciones Viento Presión Humedad
    00:00 +24°C° 0 mm 1 mps 747 mmHg 98%
    01:00 +24°C° 0 mm 1 mps 746 mmHg 99%
    02:00 +21°C° 0 mm 0 mps 746 mmHg 99%
    03:00 +21°C° 0 mm 0 mps 746 mmHg 99%
    04:00 +21°C° 0 mm 0 mps 746 mmHg 99%
    05:00 +21°C° 0 mm 0 mps 746 mmHg 98%
    06:00 +22°C° 0 mm 0 mps 747 mmHg 97%
    07:00 +23°C° 0 mm 0 mps 747 mmHg 96%
    08:00 +23°C° 0 mm 0 mps 748 mmHg 94%
    09:00 +26°C° 0.1 mm 1 mps 748 mmHg 89%
    10:00 +27°C° 0.1 mm 1 mps 748 mmHg 83%
    11:00 +28°C° 0.1 mm 1 mps 748 mmHg 77%
    12:00 +30°C° 0.1 mm 1 mps 747 mmHg 71%
    13:00 +31°C° 0.1 mm 1 mps 746 mmHg 64%
    14:00 +32°C° 0.1 mm 1 mps 745 mmHg 57%
    15:00 +32°C° 0.1 mm 1 mps 745 mmHg 59%
    16:00 +32°C° 0.1 mm 1 mps 745 mmHg 61%
    17:00 +31°C° 0.1 mm 1 mps 744 mmHg 63%
    18:00 +29°C° 0.2 mm 1 mps 745 mmHg 73%
    19:00 +27°C° 0.2 mm 1 mps 745 mmHg 83%
    20:00 +25°C° 0.2 mm 1 mps 746 mmHg 93%
    21:00 +25°C° 0 mm 1 mps 746 mmHg 94%
    22:00 +24°C° 0 mm 1 mps 747 mmHg 95%
    23:00 +24°C° 0 mm 1 mps 747 mmHg 96%

    25 Febrero, Martes

    Tiempo Temperatura Precipitaciones Viento Presión Humedad
    00:00 +24°C° 0 mm 1 mps 747 mmHg 97%
    01:00 +23°C° 0 mm 1 mps 746 mmHg 98%
    02:00 +21°C° 0 mm 0 mps 746 mmHg 99%
    03:00 +23°C° 0 mm 1 mps 746 mmHg 98%
    04:00 +23°C° 0 mm 1 mps 746 mmHg 98%
    05:00 +23°C° 0 mm 1 mps 746 mmHg 97%
    06:00 +24°C° 0 mm 1 mps 746 mmHg 92%
    07:00 +25°C° 0 mm 1 mps 747 mmHg 87%
    08:00 +26°C° 0 mm 1 mps 747 mmHg 81%
    09:00 +27°C° 0 mm 1 mps 747 mmHg 74%
    10:00 +29°C° 0 mm 1 mps 747 mmHg 67%
    11:00 +30°C° 0 mm 2 mps 747 mmHg 60%
    12:00 +31°C° 0 mm 1 mps 747 mmHg 54%
    13:00 +33°C° 0 mm 1 mps 746 mmHg 47%
    14:00 +35°C° 0 mm 1 mps 745 mmHg 41%
    15:00 +34°C° 0 mm 1 mps 745 mmHg 44%
    16:00 +33°C° 0 mm 1 mps 745 mmHg 47%
    17:00 +32°C° 0 mm 1 mps 744 mmHg 50%
    18:00 +30°C° 0 mm 1 mps 745 mmHg 57%
    19:00 +28°C° 0 mm 2 mps 746 mmHg 64%
    20:00 +26°C° 0 mm 2 mps 746 mmHg 72%
    21:00 +25°C° 0 mm 1 mps 746 mmHg 77%
    22:00 +24°C° 0 mm 1 mps 747 mmHg 82%
    23:00 +23°C° 0 mm 1 mps 747 mmHg 88%

    26 Febrero, Miércoles

    Tiempo Temperatura Precipitaciones Viento Presión Humedad
    00:00 +23°C° 0 mm 1 mps 747 mmHg 91%
    01:00 +22°C° 0 mm 1 mps 746 mmHg 94%
    02:00 +21°C° 0 mm 1 mps 746 mmHg 97%
    03:00 +21°C° 0 mm 1 mps 746 mmHg 98%
    04:00 +21°C° 0 mm 1 mps 746 mmHg 98%
    05:00 +19°C° 0 mm 0 mps 746 mmHg 99%
    06:00 +22°C° 0 mm 1 mps 746 mmHg 92%
    07:00 +24°C° 0 mm 1 mps 747 mmHg 85%
    08:00 +26°C° 0 mm 1 mps 748 mmHg 77%
    09:00 +28°C° 0 mm 2 mps 748 mmHg 66%
    10:00 +30°C° 0 mm 2 mps 748 mmHg 54%
    11:00 +34°C° 0 mm 2 mps 748 mmHg 42%
    12:00 +35°C° 0 mm 2 mps 747 mmHg 39%
    13:00 +36°C° 0 mm 2 mps 746 mmHg 35%
    14:00 +36°C° 0 mm 1 mps 745 mmHg 32%
    15:00 +35°C° 0 mm 1 mps 745 mmHg 37%
    16:00 +34°C° 0 mm 1 mps 744 mmHg 42%
    17:00 +32°C° 0 mm 1 mps 744 mmHg 47%
    18:00 +31°C° 0 mm 1 mps 745 mmHg 54%
    19:00 +29°C° 0 mm 1 mps 745 mmHg 61%
    20:00 +27°C° 0 mm 2 mps 746 mmHg 68%
    21:00 +26°C° 0 mm 1 mps 746 mmHg 73%
    22:00 +25°C° 0 mm 1 mps 747 mmHg 77%
    23:00 +24°C° 0 mm 1 mps 747 mmHg 82%

    27 Febrero, Jueves

    Tiempo Temperatura Precipitaciones Viento Presión Humedad
    00:00 +23°C° 0 mm 1 mps 747 mmHg 86%
    01:00 +22°C° 0 mm 1 mps 746 mmHg 90%
    02:00 +19°C° 0 mm 0 mps 746 mmHg 94%
    03:00 +19°C° 0 mm 0 mps 746 mmHg 95%
    04:00 +19°C° 0 mm 0 mps 746 mmHg 95%
    05:00 +19°C° 0 mm 0 mps 746 mmHg 96%
    06:00 +23°C° 0 mm 1 mps 747 mmHg 90%
    07:00 +24°C° 0 mm 1 mps 747 mmHg 83%
    08:00 +26°C° 0 mm 1 mps 748 mmHg 77%
    09:00 +27°C° 0 mm 1 mps 748 mmHg 71%
    10:00 +28°C° 0 mm 1 mps 748 mmHg 65%
    11:00 +29°C° 0 mm 1 mps 747 mmHg 60%
    12:00 +31°C° 0 mm 1 mps 747 mmHg 54%
    13:00 +33°C° 0 mm 1 mps 746 mmHg 47%
    14:00 +35°C° 0 mm 1 mps 745 mmHg 41%
    15:00 +34°C° 0 mm 1 mps 745 mmHg 44%
    16:00 +33°C° 0 mm 1 mps 744 mmHg 46%
    17:00 +33°C° 0 mm 1 mps 744 mmHg 48%
    18:00 +31°C° 0 mm 1 mps 745 mmHg 55%
    19:00 +29°C° 0 mm 1 mps 745 mmHg 61%
    20:00 +27°C° 0 mm 1 mps 746 mmHg 68%
    21:00 +26°C° 0 mm 1 mps 746 mmHg 73%
    22:00 +25°C° 0 mm 1 mps 747 mmHg 78%
    23:00 +24°C° 0 mm 1 mps 747 mmHg 83%
    Mostrar más